Location: Lynch Observatory
(39.9540°N, 75.1861°W)
Time: 20:19:02
(UTC-04:00)

DOVE 4 - Pass Details

Date: 01 May 2024
Orbit: 582 x 778 km, 97.7° (Epoch: 28 May)

Event Time Altitude Azimuth Distance (km) Brightness Sun altitude
Rises 23:28:13 0° 360° (N) 2,982 ? -30.8°
Reaches altitude 10° 23:30:37 10° 349° (N) 2,099 ? -30.9°
Maximum altitude 23:34:33 29° 290° (WNW) 1,271 ? -31.3°
Enters shadow 23:34:47 29° 285° (WNW) 1,277 ? -31.3°
